Content
SEND FEEDBACK

Daily
Averages
Monthly
Summary
United States of America

BURLINGTON, NORTH CAROLINA


Home > North America > United States > North Carolina
Elevation: 638 feet     Latitude: 36 02N     Longitude: 079 28W

WEATHER
 
SELECT A DAY
Number of Records: 171,892;   Date Range: 7/1/98 - 9/22/14
 
SHARE

PRINT THIS DATA

[ ← Previous Day ]
WEATHER ALMANAC - NOVEMBER 12, 2013
[ Next Day → ]
[ °C ]   °F
Weather ElementAverageHighLow
Temperature40.6 °F57.9 °F (10:54 am)30.9 °F (11:54 pm)
Dewpoint30.3 °F37 °F (2:54 pm)16 °F (11:54 pm)
Humidity69.4 %85 % (5:54 pm)35 % (10:54 am)
Barometer30.21 in30.44 in (11:54 pm)30.05 in (5:54 am)
Wind Speed7.4 mph19.6 mph (1:54 pm)
Wind Gust27.6 mph (1:54 pm)
Weather ElementAverage
Visibility9.9 mi
Wind DirectionSSE (163.7 °)

Weather ElementTotal
Precipitation0.12 in
Heating Degree Days20.6 (Base 65)
Averaged from 27 records on November 12, 2013
WEATHER CONDITIONS BREAKOUT
WIND DIRECTION BREAKOUT
WEATHER BY HOUR - NOVEMBER 12, 2013
[ °C ]   °F
Local TimeTemperatureDewpointHumidityBarometerVisibilityWind DirectionWind SpeedGust SpeedPrecipitationEventsConditions
1:54 AM37.0 °F28.9 °F73 %30.09 in10.0 miCalmClear
2:54 AM33.1 °F28.0 °F82 %30.09 in10.0 miCalmClear
3:54 AM33.1 °F28.0 °F82 %30.06 in10.0 miCalmPartly Cloudy
4:54 AM36.0 °F30.0 °F79 %30.06 in10.0 miCalmClear
5:54 AM35.1 °F30.0 °F82 %30.05 in10.0 miCalmClear
6:54 AM37.9 °F30.9 °F76 %30.06 in10.0 miCalmClear
7:54 AM42.1 °F35.1 °F76 %30.07 in10.0 miWSW (250°)3.5 mphScattered Clouds
8:54 AM48.9 °F34.0 °F56 %30.09 in10.0 miSW (230°)6.9 mphClear
9:54 AM55.9 °F33.1 °F42 %30.11 in10.0 miVariable5.8 mphScattered Clouds
10:54 AM57.9 °F30.0 °F35 %30.12 in10.0 miNorth (360°)6.9 mphMostly Cloudy
11:54 AM57.0 °F33.1 °F40 %30.12 in10.0 miNorth (360°)10.4 mph19.6 mphMostly Cloudy
12:54 PM57.0 °F34.0 °F42 %30.12 in10.0 miNNW (340°)15.0 mph21.9 mphOvercast
1:54 PM54.0 °F30.9 °F41 %30.14 in10.0 miNNE (20°)19.6 mph27.6 mphOvercast
2:54 PM44.1 °F37.0 °F76 %30.20 in8.0 miNorth (10°)16.1 mph24.2 mph0.01 inRainLight Rain
3:46 PM41.0 °F35.1 °F79 %30.22 in10.0 miNNE (30°)11.5 mph0.01 inRainLight Rain
3:54 PM41.0 °F35.1 °F79 %30.25 in10.0 miNNE (30°)17.3 mph25.3 mph0.01 inRainLight Rain
4:54 PM37.0 °F32.0 °F82 %30.28 in10.0 miNNE (20°)8.1 mph19.6 mph0.01 inRainLight Rain
5:04 PM37.0 °F32.0 °F82 %30.28 in10.0 miNorth (10°)10.4 mph0.01 inRainLight Rain
5:33 PM36.0 °F30.9 °F82 %30.29 in10.0 miNorth (350°)11.5 mph0.02 inRainLight Rain
5:52 PM35.6 °F30.2 °F81 %30.30 in9.0 miNorth (360°)12.7 mph17.3 mph0.02 inSnowLight Snow
5:54 PM35.1 °F30.9 °F85 %30.32 in9.0 miNorth (360°)10.4 mph0.02 inSnowLight Snow
6:54 PM35.1 °F30.9 °F85 %30.34 in10.0 miNE (40°)3.5 mph0.01 inOvercast
7:54 PM35.1 °F30.9 °F85 %30.36 in10.0 miNW (310°)3.5 mphOvercast
8:54 PM36.0 °F28.0 °F73 %30.37 in10.0 miNNW (330°)8.1 mphClear
9:54 PM34.0 °F23.0 °F64 %30.41 in10.0 miNNW (330°)5.8 mphClear
10:54 PM32.0 °F19.9 °F61 %30.43 in10.0 miNNW (330°)8.1 mphClear
11:54 PM30.9 °F16.0 °F54 %30.44 in10.0 miNorth (350°)5.8 mphClear
Hourly data recorded from KBUY, located miles away from Burlington, North Carolina







STORIES FROM OUR PARTNERS